Погода в Махмутларе

Турция     36°30′00″N   32°07′49″E
темп.,
°C
ветер,
м/с
пор.,
м/с
влажн.,
%
обл.,
%
осадки,
мм/ч
давл.,
гПа
погр.,
м
30 ноября, вт
вт3000:00+18в2238100 0.0 101615
03:00+17вюв1142100 0.0 101515
06:00+16юв1145100 0.0 101414
09:00+17юв114829 0.0 101342
12:00+17ююз3564100 0.1 1014795
15:00+14ююз349096 0.9 1012471
18:00+12ю348782 1.6 1012249
21:00+11ююв239438 4.4 1012153
1 декабря, ср
ср100:00+12ю577758 2.9 1011489
03:00+12ююз4673100 3.8 1010380
06:00+10всв227898 0.6 1009127
09:00+11всв11670 1.1 101077
12:00+14всв114016 0.0 10111876
15:00+14зюз334730 0.0 10111178
18:00+10ююв00622 0.0 101211
21:00+9всв33620 0.0 101435
2 декабря, чт
чт200:00+8св44470 0.0 101664
03:00+7св44510 0.0 101765
06:00+6св54470 0.0 101861
09:00+9св44400 0.0 101974
12:00+14юз21290 0.0 1019913
15:00+13юз22400 0.0 10181062
18:00+9зюз00630 0.0 101910
21:00+8всв22600 0.0 102017
3 декабря, пт
пт300:00+8всв32490 0.0 102125
03:00+7св22470 0.0 102120
06:00+8св32490 0.0 102123
09:00+10св225162 0.0 102242
12:00+13ююз125197 0.0 10221115
15:00+13ююв0151100 0.0 1021911
18:00+11в2260100 0.0 102115
21:00+10ссв1159100 0.0 102111
4 декабря, сб
сб400:00+10всв2259100 0.0 102117
03:00+10в2258100 0.0 102014
06:00+11св1156100 0.0 101722
09:00+11ссв225677 0.0 101748
12:00+15юз214386 0.0 1016656
15:00+15юз214582 0.0 1012584
18:00+11ссз11680 0.0 101111
21:00+10всв22522 0.0 101115